Wetbulb
73.01 74.68 75.87 76.33 76.05 76.60 75.78 75.59 75.86 76.22 76.05 76.22 76.73 77.20 76.83 76.73 76.65 76.31 76.62 76.64 76.31 76.26 76.76 76.71 76.92 76.80 76.97 76.95 76.87 76.79 77.12 77.50 77.39 76.90 77.12 77.19 77.43 77.30 77.15 77.03 76.71 75.97 77.10
74.11 75.08 75.91 76.45 75.76 76.20 75.64 75.45 75.53 75.67 76.00 76.36 76.55 76.94 76.85 76.81 76.68 76.51 76.39 76.73 76.54 76.51 76.26 76.18 76.26 76.26 76.45 75.98 75.98 76.51 76.48 76.84 76.82 76.71 76.93 77.24 77.20 77.05 76.04 75.95 78.35 76.37 76.87
74.83 75.46 75.97 76.37 77.12 76.01 75.79 75.21 76.03 76.19 76.45 76.49 76.53 76.64 76.23 76.70 76.53 76.81 76.76 76.57 76.40 76.26 75.84 76.04 76.26 75.98 75.82 75.90 75.43 74.78 75.73 76.12 75.59 74.77 75.96 76.78 75.83 76.65 76.56 76.32 76.88 76.60 76.78
74.95 75.72 75.86 77.20 76.74 76.67 76.58 76.46 76.16 76.49 76.20 76.12 76.36 76.81 76.61 76.34 76.31 76.37 76.12 75.76 75.42 75.14 74.83 75.37 75.70 75.59 75.03 75.15 75.48 74.71 74.31 74.65 75.23 75.67 76.06 75.69 75.01 75.79 76.07 76.01 76.73 76.72 76.48
74.54 76.12 77.18 77.25 76.85 76.95 76.58 76.30 76.25 75.98 76.69 76.47 76.33 76.24 76.03 76.36 76.44 76.48 76.12 76.03 76.09 75.90 75.71 75.70 75.09 73.92 74.26 75.06 74.82 74.62 74.09 73.94 74.90 75.52 75.94 75.67 75.72 75.50 75.33 75.41 75.60 76.51 76.80
74.99 76.40 77.19 77.30 77.15 76.85 76.51 76.69 76.85 76.24 75.95 76.00 76.56 76.23 76.12 75.68 75.26 75.01 74.73 74.73 74.92 74.92 74.76 74.98 75.43 75.79 75.21 73.86 73.86 74.46 74.63 75.07 75.43 75.15 75.36 73.09 75.24 76.46 75.13 74.26 75.41 76.34 76.00
74.80 76.24 76.98 76.98 76.97 76.57 76.83 76.56 76.80 76.45 76.19 75.64 75.54 75.57 75.15 74.60 74.32 74.26 74.20 73.89 74.00 74.42 74.56 74.70 75.06 75.76 76.12 76.50 75.95 75.23 74.73 74.62 74.58 75.37 75.55 75.62 75.72 76.49 75.78 74.85 75.05 75.70 75.90
73.85 74.60 75.46 76.78 76.67 76.98 76.65 76.28 76.48 75.59 74.01 73.72 73.98 74.32 74.23 74.68 74.93 74.90 75.04 75.23 75.46 75.71 75.93 75.98 76.23 76.29 76.54 76.54 76.45 76.67 76.47 76.11 75.78 74.37 74.47 75.09 75.20 75.12 75.12 76.26 76.15 76.04 75.98
74.26 75.49 75.15 75.02 77.51 76.39 76.11 76.43 74.65 74.46 75.04 75.23 75.01 75.07 75.34 75.59 75.73 75.82 75.84 75.95 76.09 76.23 76.56 76.81 76.84 76.92 77.17 77.00 77.19 77.04 76.99 77.16 76.29 75.64 74.10 75.28 75.76 75.76 75.72 75.67 76.65 76.43 76.60
73.99 73.94 74.75 75.50 75.87 75.83 75.52 75.65 75.51 76.14 75.68 75.40 75.37 75.68 76.45 76.67 76.92 77.14 77.43 76.89 76.90 76.82 76.95 77.04 77.15 77.23 77.25 77.36 77.41 77.38 77.27 77.50 76.64 75.72 75.04 75.04 76.89 76.51 76.65 76.79 76.69 77.27 77.34
73.30 74.37 75.63 75.49 76.25 76.94 76.72 76.28 76.23 76.53 76.43 76.29 76.70 77.09 77.79 77.70 77.83 79.38 80.10 78.86 78.46 78.13 78.27 78.25 78.09 77.95 77.93 78.14 78.13 77.87 77.74 76.89 75.75 75.65 75.49 77.18 77.98 76.88 76.88 77.23 78.07 77.38 77.43
72.36 73.66 75.10 75.30 75.56 75.97 75.62 76.85 77.40 76.14 77.15 78.47 78.61 79.14 78.68 78.46 79.45 77.63 79.09 78.24 77.96 78.26 78.87 79.38 79.70 79.06 78.70 77.72 77.34 78.13 77.31 76.37 76.35 76.39 75.72 77.96 78.17 77.21 76.98 78.04 78.07 77.70 77.13
72.63 73.43 74.70 75.30 76.00 75.44 75.26 75.78 75.77 76.93 76.97 78.56 79.67 79.66 80.35 78.84 78.52 77.76 78.04 78.28 79.39 78.06 78.17 78.77 78.75 78.20 77.46 76.97 77.21 76.29 76.52 76.83 76.04 75.42 77.96 78.09 77.92 77.83 77.63 78.16 78.16 77.76 77.51
71.80 72.91 74.15 75.37 76.24 76.01 75.91 76.07 76.40 76.51 76.86 76.95 78.62 79.66 79.86 78.36 79.64 78.93 77.62 78.30 77.87 77.13 78.24 77.57 76.58 76.38 77.60 79.25 77.88 77.69 77.16 75.23 77.16 74.29 77.26 78.30 78.05 78.16 78.32 78.71 77.61 77.73 77.59
71.52 72.94 74.05 75.52 76.72 77.42 78.03 77.23 77.61 77.14 76.82 78.30 77.90 79.54 80.01 77.99 78.20 78.57 78.65 78.18 78.19 78.19 78.45 78.49 77.08 78.87 77.88 77.79 77.74 77.32 76.67 76.65 76.83 77.26 75.68 74.57 77.08 77.51 78.41 78.00 76.79 76.76 75.90
71.86 72.72 73.97 75.05 77.23 77.89 78.13 78.78 78.62 77.57 79.16 77.70 78.17 78.87 80.06 79.58 79.11 78.17 78.48 78.12 78.18 78.23 77.84 78.84 79.25 79.22 78.26 76.61 78.30 76.38 75.91 75.51 74.69 73.99 74.25 78.40 75.95 74.04 75.22 75.06 73.45 72.66 73.78
71.83 73.11 74.15 75.02 76.41 77.99 78.53 78.98 78.76 78.08 75.69 78.01 78.36 79.30 79.66 79.92 80.40 80.35 78.26 77.87 78.43 79.07 80.32 79.63 78.67 78.41 77.97 77.21 76.04 75.72 74.80 74.33 73.97 75.34 76.15 76.99 75.02 74.83 74.72 73.87 74.31 73.61 73.09
72.00 73.36 74.70 74.62 76.24 77.70 78.43 78.73 77.31 76.95 78.66 78.58 77.57 77.64 79.40 80.15 80.56 80.29 77.91 75.62 78.57 80.16 77.94 76.42 76.65 76.16 76.21 75.31 75.13 75.07 74.70 74.93 75.17 76.58 77.46 78.62 78.45 75.27 71.79 73.50 73.53 73.82 73.59
73.04 74.39 74.72 75.39 75.75 76.76 78.41 78.57 78.59 80.80 77.45 78.77 77.66 78.04 80.59 78.65 79.05 79.43 78.30 78.29 79.81 78.49 78.63 77.83 76.31 76.88 78.49 75.14 73.93 73.74 74.37 74.62 75.19 75.64 76.38 76.67 75.94 74.81 74.48 71.87 73.42 73.44 71.83
73.73 74.47 75.52 76.03 76.88 77.58 77.88 78.68 78.29 78.17 78.15 77.44 76.86 78.09 79.04 78.90 78.61 78.98 77.82 78.71 79.17 76.69 77.74 77.78 78.25 77.85 78.56 75.63 73.17 73.89 75.24 74.98 75.62 75.16 74.72 74.93 75.26 74.47 73.84 74.22 74.07 71.44 71.09
74.29 74.64 75.50 75.71 78.07 76.96 76.54 76.32 76.28 75.50 76.97 75.12 77.53 78.83 79.07 78.70 78.31 79.37 77.52 78.02 78.32 77.51 78.53 78.79 77.90 77.14 75.47 76.87 76.68 74.42 73.97 74.87 73.18 73.40 73.24 73.27 72.94 72.20 72.98 72.88 71.44 70.06 70.81
73.64 74.74 75.53 76.14 77.30 77.11 76.53 76.83 77.21 79.26 78.02 78.36 77.97 79.74 78.89 78.80 78.84 79.00 79.50 78.96 79.65 77.94 80.00 79.26 79.04 76.33 75.86 77.92 73.39 72.41 69.92 70.31 70.55 70.19 69.43 69.79 69.49 71.54 70.90 71.16 69.93 70.49 70.18
72.99 74.07 75.49 76.76 77.38 78.46 78.81 76.44 76.91 77.81 78.02 77.02 76.37 76.13 78.73 79.66 79.25 79.45 79.88 80.20 80.33 80.10 76.56 79.81 79.55 79.03 74.81 76.40 76.58 72.72 67.52 65.26 67.44 69.26 67.65 67.09 65.86 69.65 69.08 69.85 70.58 70.81 72.19
72.59 73.92 75.38 77.14 78.21 78.14 79.78 78.03 80.39 76.22 75.71 77.07 78.86 77.62 78.90 79.37 79.39 79.43 80.34 80.79 80.88 79.49 81.50 79.49 79.25 80.03 79.70 75.73 78.10 75.17 74.98 70.75 65.56 61.32 65.15 64.42 66.64 67.36 68.88 68.99 69.83 71.41 71.57
72.80 72.93 74.23 77.25 78.50 79.74 79.38 79.56 76.88 78.12 77.03 77.03 75.82 80.63 80.09 81.68 80.19 79.19 79.28 80.70 80.80 79.66 81.48 81.05 81.03 81.03 78.40 76.33 74.57 77.25 75.71 71.92 70.46 63.90 59.42 61.78 65.07 67.43 68.95 69.27 70.20 69.62 69.28
72.85 73.31 73.84 77.17 79.46 79.63 79.39 78.15 79.48 80.42 79.01 77.47 76.95 75.82 75.86 76.14 78.85 80.73 79.46 79.98 80.78 80.98 80.97 80.19 81.43 81.03 79.89 78.72 76.27 76.25 75.44 72.98 73.19 65.68 61.18 61.26 61.49 65.92 68.60 69.76 69.09 68.59 69.20
MSLP
1011.75 1012.96 1013.59 1013.64 1013.73 1013.86 1014.02 1014.19 1014.26 1014.38 1014.41 1014.47 1014.50 1014.56 1014.68 1014.76 1014.83 1014.92 1015.20 1015.27 1015.43 1015.59 1015.62 1015.59 1015.77 1015.88 1015.81 1015.80 1015.73 1015.81 1015.80 1015.79 1015.68 1015.62 1015.59 1015.82 1015.87 1016.03 1016.03 1015.98 1015.92 1015.97 1016.38
1011.57 1012.65 1013.70 1013.79 1013.95 1014.13 1014.33 1014.46 1014.60 1014.74 1014.78 1014.80 1014.88 1014.93 1014.99 1015.00 1015.06 1015.20 1015.39 1015.50 1015.63 1015.74 1015.75 1015.87 1015.99 1016.01 1015.90 1015.95 1015.98 1015.83 1015.85 1015.84 1015.75 1015.68 1015.67 1015.81 1015.92 1016.06 1016.09 1016.13 1015.69 1016.30 1016.53
1011.24 1012.65 1013.42 1014.02 1014.13 1014.34 1014.50 1014.69 1014.83 1014.93 1014.98 1015.05 1015.09 1015.20 1015.23 1015.23 1015.34 1015.44 1015.55 1015.62 1015.75 1015.74 1015.80 1015.95 1016.04 1016.07 1016.02 1016.08 1016.04 1016.17 1016.06 1015.95 1015.82 1015.58 1015.61 1015.17 1015.42 1016.19 1016.36 1016.22 1016.49 1016.88 1016.87
1010.77 1011.83 1012.94 1014.20 1014.34 1014.55 1014.67 1014.85 1015.01 1015.13 1015.21 1015.25 1015.30 1015.36 1015.38 1015.44 1015.55 1015.62 1015.68 1015.73 1015.67 1015.76 1015.82 1016.02 1016.07 1016.18 1016.19 1016.23 1016.26 1016.26 1016.18 1016.12 1015.92 1015.67 1014.88 1014.47 1014.68 1016.20 1016.35 1016.58 1016.57 1016.81 1017.16
1010.25 1011.04 1013.47 1014.26 1014.46 1014.70 1014.86 1015.00 1015.14 1015.31 1015.33 1015.43 1015.56 1015.67 1015.73 1015.72 1015.80 1015.81 1015.84 1015.77 1015.69 1015.86 1015.94 1016.08 1016.24 1016.28 1016.20 1016.25 1016.32 1016.27 1016.22 1016.13 1015.92 1015.59 1014.76 1014.73 1014.95 1015.96 1016.29 1016.50 1016.72 1016.90 1017.02
1009.95 1011.60 1013.86 1014.36 1014.59 1014.85 1015.07 1015.21 1015.31 1015.49 1015.53 1015.64 1015.71 1015.81 1015.88 1015.98 1015.98 1015.94 1015.92 1015.93 1015.92 1015.93 1016.01 1016.09 1016.24 1016.23 1016.25 1016.28 1016.32 1016.23 1016.29 1016.25 1015.98 1015.11 1014.50 1015.14 1015.35 1016.09 1016.27 1016.62 1016.52 1016.77 1017.14
1010.17 1012.06 1013.67 1014.56 1014.80 1015.04 1015.25 1015.39 1015.52 1015.62 1015.71 1015.81 1015.92 1016.03 1016.12 1016.12 1016.04 1016.01 1016.04 1016.02 1015.97 1015.99 1016.03 1016.06 1016.15 1016.21 1016.14 1016.16 1016.24 1016.24 1016.27 1016.31 1015.72 1014.57 1014.68 1014.33 1015.25 1016.10 1016.31 1016.49 1016.73 1016.85 1017.08
1010.33 1011.56 1013.60 1014.67 1014.92 1015.16 1015.31 1015.49 1015.67 1015.78 1015.86 1015.89 1016.02 1016.13 1016.12 1015.98 1015.92 1015.99 1016.00 1015.98 1015.91 1015.89 1015.94 1016.01 1016.09 1016.18 1016.18 1016.10 1016.11 1016.10 1016.07 1016.05 1015.18 1014.36 1014.41 1014.21 1015.30 1015.96 1016.21 1016.37 1016.47 1016.56 1016.87
1010.36 1011.17 1012.95 1013.80 1014.63 1015.16 1015.31 1015.55 1015.77 1015.83 1015.85 1015.94 1016.02 1015.99 1015.83 1015.82 1015.76 1015.75 1015.80 1015.76 1015.74 1015.76 1015.85 1015.89 1015.93 1016.02 1016.00 1015.98 1015.89 1015.87 1015.86 1015.82 1015.19 1013.61 1013.67 1013.68 1014.69 1015.31 1015.69 1015.90 1016.11 1016.46 1016.69
1010.93 1011.46 1012.10 1013.07 1013.66 1013.98 1014.68 1015.45 1015.65 1015.74 1015.76 1015.83 1015.84 1015.75 1015.58 1015.52 1015.47 1015.38 1015.36 1015.40 1015.50 1015.63 1015.67 1015.66 1015.72 1015.76 1015.77 1015.70 1015.55 1015.51 1015.48 1015.25 1014.51 1013.22 1013.11 1013.80 1014.34 1014.78 1015.15 1015.46 1015.70 1015.99 1016.34
1011.32 1011.82 1011.90 1012.37 1013.19 1013.69 1013.73 1014.80 1015.37 1015.49 1015.53 1015.52 1015.42 1015.36 1015.05 1014.70 1014.67 1014.20 1014.60 1014.80 1015.23 1015.40 1015.45 1015.40 1015.37 1015.42 1015.30 1014.89 1014.84 1014.85 1014.80 1013.77 1013.28 1012.84 1012.27 1013.23 1013.69 1014.26 1014.77 1014.98 1015.32 1015.76 1015.82
1011.16 1011.70 1012.05 1012.43 1012.79 1013.61 1013.06 1014.29 1013.97 1014.03 1014.42 1014.23 1014.18 1014.53 1013.99 1014.05 1014.19 1014.14 1014.48 1014.68 1014.80 1014.94 1014.84 1014.80 1014.88 1014.85 1014.53 1013.66 1013.98 1014.46 1013.73 1012.56 1011.83 1011.88 1011.35 1013.24 1013.82 1014.27 1014.57 1014.81 1014.89 1015.21 1015.66
1010.96 1011.29 1012.13 1012.38 1012.84 1012.83 1012.83 1013.46 1013.22 1013.27 1013.73 1013.52 1014.25 1014.33 1013.93 1013.71 1013.62 1013.80 1013.88 1013.54 1013.73 1014.30 1013.71 1014.10 1013.73 1013.54 1013.15 1013.39 1012.91 1013.15 1012.54 1010.63 1011.05 1010.66 1011.76 1013.25 1013.80 1014.28 1014.45 1014.26 1014.58 1014.96 1015.25
1010.78 1011.22 1011.90 1012.65 1013.28 1012.66 1013.16 1013.26 1013.20 1012.95 1013.15 1013.19 1013.60 1013.93 1014.11 1013.85 1013.69 1013.50 1013.41 1013.21 1013.50 1013.14 1013.12 1013.04 1012.53 1013.30 1012.35 1012.37 1012.11 1011.98 1010.89 1011.69 1010.53 1011.26 1012.81 1012.29 1013.34 1013.83 1013.91 1014.20 1014.58 1014.74 1015.17
1010.79 1011.31 1011.73 1012.76 1013.54 1013.42 1013.76 1013.35 1013.29 1013.23 1013.32 1013.41 1013.05 1013.60 1013.76 1013.42 1013.63 1013.47 1013.54 1013.29 1013.00 1012.54 1012.38 1012.38 1012.84 1012.17 1012.35 1011.66 1011.47 1011.62 1011.56 1010.61 1010.43 1010.96 1012.24 1014.08 1012.55 1013.51 1014.07 1013.86 1014.95 1014.70 1014.99
1010.76 1011.31 1011.79 1012.71 1013.49 1013.65 1013.76 1013.86 1013.47 1013.37 1013.08 1012.94 1012.88 1013.58 1013.58 1013.34 1013.39 1013.12 1013.02 1012.59 1012.67 1012.47 1012.52 1012.79 1012.93 1012.62 1012.14 1011.16 1011.02 1010.83 1010.96 1010.46 1010.41 1011.06 1011.36 1012.31 1012.80 1013.88 1015.30 1014.46 1014.80 1015.00 1015.26
1010.62 1011.07 1011.62 1012.36 1013.06 1013.60 1013.79 1013.71 1013.40 1012.85 1013.72 1012.70 1012.66 1013.07 1013.35 1013.47 1013.52 1013.50 1012.68 1012.66 1012.45 1012.65 1012.90 1012.68 1012.77 1012.21 1012.08 1011.67 1011.36 1010.99 1010.76 1010.46 1010.35 1011.18 1011.94 1012.71 1013.56 1014.47 1014.76 1014.07 1014.91 1015.27 1015.60
1010.25 1010.94 1011.37 1011.77 1012.45 1013.22 1013.38 1013.28 1013.08 1012.74 1012.67 1012.42 1012.03 1012.80 1013.06 1013.13 1013.27 1012.96 1012.32 1012.73 1012.31 1012.60 1012.43 1012.43 1012.19 1012.19 1012.19 1011.99 1011.76 1011.29 1011.21 1011.01 1010.81 1010.91 1011.83 1012.42 1013.30 1014.02 1014.01 1013.96 1014.13 1014.21 1014.99
1010.15 1011.02 1011.45 1011.80 1012.06 1012.60 1013.12 1012.88 1012.68 1012.51 1012.51 1011.93 1011.88 1011.70 1012.41 1012.53 1012.45 1012.85 1012.24 1013.07 1012.47 1012.06 1012.08 1012.40 1012.27 1012.35 1012.66 1012.26 1011.67 1011.38 1011.46 1011.29 1011.18 1011.45 1012.38 1012.97 1013.40 1013.79 1013.74 1014.30 1014.31 1014.51 1014.82
1010.10 1010.89 1011.50 1011.85 1012.19 1012.59 1012.64 1013.01 1012.32 1012.27 1012.35 1011.56 1011.60 1011.44 1012.04 1011.99 1012.35 1012.70 1012.50 1012.44 1012.79 1011.99 1012.20 1012.59 1012.98 1012.97 1012.60 1012.62 1012.17 1011.91 1011.44 1011.26 1011.91 1012.59 1013.08 1012.78 1013.08 1013.59 1013.72 1013.97 1014.15 1014.48 1014.46
1009.70 1010.58 1011.24 1011.75 1012.20 1012.61 1012.67 1012.30 1012.05 1011.89 1011.70 1012.35 1011.42 1011.70 1012.30 1012.23 1012.30 1012.46 1012.07 1012.20 1012.43 1012.56 1012.94 1013.05 1012.82 1012.44 1012.02 1012.39 1012.59 1012.28 1011.67 1011.29 1011.78 1012.00 1012.77 1013.73 1013.62 1013.61 1013.56 1014.04 1014.34 1014.31 1014.39
1009.18 1010.08 1010.93 1011.44 1012.06 1012.58 1012.43 1012.24 1011.95 1012.06 1011.68 1011.73 1011.88 1011.61 1012.02 1012.32 1012.14 1012.26 1012.62 1012.22 1012.35 1012.40 1012.60 1012.82 1012.72 1012.72 1012.02 1012.16 1012.75 1012.95 1012.47 1012.32 1012.71 1012.40 1012.71 1013.91 1014.53 1013.99 1013.74 1013.86 1014.14 1014.05 1014.14
1008.40 1009.36 1010.20 1011.04 1011.52 1012.12 1012.22 1012.27 1012.36 1012.39 1012.04 1011.57 1011.34 1011.39 1011.76 1012.18 1012.18 1012.28 1012.44 1012.59 1012.62 1012.73 1011.78 1012.43 1012.14 1012.28 1012.08 1011.65 1012.56 1012.87 1012.76 1012.65 1013.22 1013.32 1013.26 1013.79 1014.33 1013.88 1013.93 1014.00 1013.95 1013.90 1013.55
1007.49 1008.47 1009.47 1010.41 1011.08 1011.59 1011.98 1011.86 1011.92 1011.68 1011.36 1011.04 1010.81 1010.75 1011.38 1011.81 1012.00 1012.02 1012.13 1012.34 1012.53 1012.38 1012.23 1011.99 1011.54 1012.18 1012.31 1012.19 1012.53 1012.80 1012.77 1013.28 1013.37 1013.62 1013.54 1013.94 1014.22 1014.03 1013.95 1014.00 1013.84 1013.59 1013.48
1006.62 1007.42 1008.44 1009.64 1010.50 1010.95 1011.52 1011.71 1011.67 1011.86 1010.96 1010.88 1010.83 1011.11 1011.62 1011.63 1011.63 1011.61 1011.66 1012.07 1012.24 1012.18 1011.71 1012.06 1012.13 1012.39 1012.02 1011.63 1011.43 1011.55 1012.43 1013.11 1013.31 1014.05 1013.95 1014.36 1014.30 1014.01 1013.74 1013.62 1013.45 1013.54 1013.51
1005.82 1006.63 1007.39 1008.71 1009.81 1010.57 1010.94 1011.55 1011.60 1011.34 1011.35 1010.84 1010.72 1010.85 1010.79 1010.37 1010.67 1011.07 1011.16 1011.70 1011.94 1012.00 1011.90 1011.82 1011.90 1011.80 1011.80 1011.70 1011.49 1011.37 1011.12 1011.86 1012.21 1013.20 1013.82 1014.16 1014.19 1013.79 1013.71 1013.74 1013.60 1013.57 1013.48
Wind_Speed
13 13 9 9 10 11 11 10 11 11 12 12 13 14 13 13 13 12 12 12 11 11 11 9 10 11 12 11 10 10 10 10 10 10 10 11 10 8 6 6 4 13 12
17 15 10 8 11 10 10 9 9 8 9 10 10 11 11 10 10 10 10 10 10 10 8 8 9 9 8 8 9 7 8 8 6 7 10 11 10 8 7 6 14 11 11
18 15 13 9 9 10 9 8 7 6 8 8 9 9 9 8 8 8 9 8 9 8 6 7 7 6 5 6 5 5 5 5 1 3 8 8 11 6 6 7 10 9 8
17 16 15 10 10 8 9 7 6 7 7 8 8 8 8 7 7 7 8 7 6 6 5 5 5 5 4 3 3 3 3 2 3 7 9 6 11 9 8 8 8 8 7
16 19 16 12 10 9 8 6 6 6 7 8 7 8 8 7 6 6 6 4 4 5 4 4 3 3 2 1 1 1 1 2 7 9 6 3 6 11 8 8 10 9 9
13 21 16 12 10 9 8 7 6 6 6 5 6 6 6 4 4 3 2 2 3 3 3 3 2 1 0 1 2 3 3 4 9 11 2 2 4 11 7 5 6 8 8
12 17 15 11 8 9 7 5 6 6 5 4 4 4 3 2 1 1 1 1 2 3 3 3 3 3 3 4 5 5 5 6 11 2 4 5 13 10 7 5 5 6 7
11 18 14 11 9 8 6 5 5 4 3 3 2 1 1 3 4 4 4 4 5 5 5 5 5 5 5 6 6 6 7 8 10 8 6 8 14 10 8 7 8 8 8
9 18 14 13 11 8 6 5 4 3 3 2 2 3 5 6 7 7 7 7 7 7 6 7 7 6 7 7 8 8 8 9 11 8 8 7 17 14 10 10 9 9 9
7 9 12 12 13 12 11 8 5 5 4 4 4 6 9 10 11 12 11 12 9 8 8 8 8 8 8 9 10 11 10 12 13 11 7 8 16 14 12 11 12 11 11
8 8 7 10 8 5 9 11 9 9 8 8 9 11 11 8 10 10 6 8 10 8 9 10 11 10 11 15 16 15 13 10 10 9 5 19 16 13 12 12 12 12 13
11 11 10 9 10 9 6 9 9 9 7 6 2 6 6 5 2 2 7 9 8 10 11 13 13 13 15 9 7 15 9 12 12 13 5 19 15 13 13 13 12 15 13
11 9 12 6 7 9 7 6 5 3 5 7 5 5 2 3 2 4 3 5 7 11 8 11 12 10 9 9 8 10 12 12 4 7 14 17 16 14 14 14 15 16 15
11 10 11 10 5 5 6 4 4 4 3 3 4 3 3 1 4 2 1 2 2 6 1 5 5 12 3 5 6 6 11 11 7 6 12 20 17 16 16 13 14 14 13
10 9 10 11 9 5 3 3 4 2 3 1 6 4 3 2 2 2 3 4 3 3 3 3 5 3 3 8 6 7 6 5 11 8 7 12 4 6 13 12 11 12 11
11 11 12 11 11 8 6 2 4 3 4 5 5 4 3 4 2 2 4 5 1 3 6 7 8 7 5 9 2 9 8 11 12 11 9 11 17 3 14 3 6 5 6
11 12 13 11 12 9 6 7 6 7 9 2 7 5 1 4 4 4 5 4 0 4 4 5 2 5 7 4 8 5 8 11 11 11 9 6 9 15 18 4 8 8 12
12 11 12 11 13 10 8 6 6 4 6 4 2 5 5 5 3 5 3 9 6 5 5 6 0 4 6 6 4 8 6 9 10 6 9 8 6 9 11 18 15 14 13
10 11 10 9 9 10 8 7 7 3 5 2 4 4 6 4 5 5 2 1 4 7 5 2 6 3 3 6 8 6 5 7 8 8 7 6 9 5 5 7 9 9 10
12 12 11 9 7 6 6 6 6 2 5 6 5 3 4 5 2 3 3 3 5 6 4 6 3 6 2 2 8 5 4 2 7 6 6 3 5 5 5 7 3 4 8
13 13 12 11 10 7 7 8 7 7 7 5 10 6 1 5 3 3 6 4 5 3 3 4 5 5 6 2 3 4 5 4 7 7 6 11 3 2 2 0 1 1 3
15 14 13 12 11 10 8 7 4 4 4 5 9 5 3 4 2 4 2 3 4 5 6 4 5 5 8 4 1 3 3 3 1 6 6 3 11 5 4 3 3 4 4
16 16 14 14 13 12 11 6 5 6 4 5 7 7 9 6 5 3 4 5 4 5 8 6 6 7 7 6 3 3 4 5 1 2 4 4 9 4 5 2 5 9 7
17 16 16 15 14 13 11 9 8 8 8 4 2 5 5 5 5 5 6 6 6 7 8 8 4 7 6 9 3 5 4 2 4 3 1 3 5 7 2 4 4 4 4
17 16 16 16 14 12 13 12 9 10 8 8 5 7 2 3 7 8 4 5 7 8 7 7 7 6 8 8 10 5 6 6 6 3 5 2 4 5 3 4 3 3 4
16 15 16 16 14 14 13 14 11 9 10 8 4 5 7 10 11 11 6 5 7 8 9 8 8 9 8 8 9 11 7 8 9 4 3 1 3 3 2 3 2 2 3
Wind_Direction
122 120 129 125 118 114 109 94 84 75 74 70 68 78 83 88 91 95 96 95 98 96 90 87 83 78 71 76 79 78 83 86 88 101 109 105 104 99 89 98 149 99 108
123 127 136 127 127 117 109 102 93 87 83 82 82 79 85 89 97 98 92 89 93 93 96 96 87 82 86 86 84 86 83 85 84 109 123 121 122 119 107 70 68 109 123
131 126 144 134 123 124 116 116 107 89 87 81 80 81 89 85 88 87 92 89 87 92 97 95 96 94 96 98 102 85 75 74 92 253 206 213 110 124 116 104 102 118 123
126 149 133 130 123 124 127 112 104 96 88 85 80 79 92 88 80 75 72 77 84 94 96 90 93 99 95 99 101 113 115 111 250 260 268 121 121 126 133 119 131 139 134
149 116 113 132 127 129 117 121 118 108 95 97 92 86 81 68 67 78 75 78 73 72 58 62 79 77 93 119 144 169 201 261 270 268 240 299 99 128 135 142 153 154 161
127 102 123 130 129 127 129 125 116 112 105 109 104 87 76 71 60 73 76 48 28 21 22 3 7 350 264 239 236 244 252 265 273 255 21 114 64 124 141 150 99 127 160
132 112 127 134 133 137 131 118 144 125 107 89 85 79 58 22 306 294 332 306 290 300 294 281 277 274 269 233 236 243 253 267 271 280 189 235 108 126 144 163 154 152 163
125 127 135 136 145 134 132 129 120 129 127 118 88 72 223 248 258 261 254 255 257 263 268 265 259 259 260 250 250 249 253 258 255 239 216 210 126 141 166 181 178 181 181
164 120 138 150 151 150 155 148 149 156 172 174 189 233 250 249 240 240 240 241 245 251 258 264 265 260 254 247 248 248 249 252 272 262 226 202 143 159 182 193 198 196 190
133 125 132 140 167 172 160 165 176 194 206 212 220 235 241 240 237 224 220 220 231 238 247 251 253 250 250 247 243 243 245 247 243 243 213 129 148 165 187 206 205 198 200
151 145 152 139 139 102 153 154 187 205 206 216 220 221 239 241 218 215 182 152 209 238 251 250 247 246 243 239 230 222 226 239 210 267 193 148 155 171 193 211 210 199 200
161 159 137 180 137 164 186 138 202 169 177 212 203 184 249 183 208 277 165 175 213 229 242 238 231 231 239 264 212 218 229 227 225 210 184 154 156 179 199 210 206 193 196
161 166 138 165 165 164 125 188 183 143 199 157 190 252 302 335 188 169 205 189 213 199 236 209 209 216 240 206 192 189 222 235 259 245 146 152 163 186 207 209 199 186 190
159 159 158 146 173 144 148 213 130 228 154 226 60 185 263 210 249 297 272 347 161 225 254 227 105 261 296 275 261 290 251 206 259 106 222 158 173 188 201 201 192 188 188
160 154 156 143 163 150 255 137 294 296 205 5 184 167 255 285 72 254 15 291 318 233 253 229 52 331 324 240 247 216 269 252 274 222 140 203 254 241 211 182 200 186 196
165 160 148 161 160 173 207 223 260 239 187 223 127 152 174 309 53 330 205 238 138 224 11 360 354 335 305 298 240 340 310 285 299 320 309 174 135 191 301 164 93 52 329
168 168 155 169 166 176 200 199 220 246 340 229 136 137 239 273 151 290 233 207 53 10 252 224 277 226 256 329 316 283 312 336 319 349 333 95 138 135 120 358 149 180 249
169 173 165 187 161 177 187 207 260 273 205 194 175 155 160 201 221 259 105 226 58 265 83 320 49 9 1 329 327 289 343 321 351 341 355 9 72 146 170 175 178 178 190
169 172 187 186 179 177 187 227 227 97 241 255 192 197 167 223 191 270 146 164 326 266 139 256 0 34 53 320 305 0 353 312 17 13 12 7 97 131 156 188 189 168 170
167 175 189 190 206 193 206 233 263 205 240 214 210 147 90 256 176 257 136 42 304 318 61 21 325 328 267 327 324 357 282 324 62 34 29 28 84 106 134 171 189 193 194
176 182 185 193 180 207 206 212 209 218 207 65 266 110 13 244 193 180 276 167 209 225 7 288 296 296 299 94 313 318 287 128 127 106 57 349 17 59 94 268 211 220 228
185 186 190 201 196 202 213 233 276 299 334 168 290 122 251 183 203 226 310 334 82 318 191 233 256 301 289 138 258 287 292 182 98 115 90 80 301 318 310 308 299 299 221
196 190 194 198 199 205 238 204 232 270 268 254 207 201 179 192 255 233 268 278 306 267 280 210 284 224 295 310 185 255 277 258 323 256 127 117 281 264 288 355 284 276 255
199 195 196 197 202 197 207 237 206 228 228 290 201 95 149 185 239 260 247 263 267 300 311 270 293 338 319 289 216 249 254 230 268 292 192 189 257 285 314 276 255 281 326
197 196 192 192 200 214 192 229 205 234 240 236 218 117 201 249 222 245 268 266 261 260 298 323 288 288 299 274 278 220 245 263 240 255 302 16 233 248 251 263 267 295 297
200 199 191 178 192 199 192 203 233 222 245 287 214 250 233 228 192 199 201 264 273 288 284 300 317 291 282 293 297 303 246 267 295 212 251 221 242 266 247 239 320 267 279